sat.trackr.live / text

‹ back to catalog

STARLINK-36981

NORAD 68148 · 2026-049G

PAYLOAD ACTIVE UNKNOWN

§ Identity

Operator
Country
US
Launch date
2026-03-13
Launch site
AFWTR
Launch vehicle
Mass (kg)
RCS (m²)

Purposes: comms

External: N2YO · Heavens-Above · Gunter

§ Orbital elements

Epoch: 2026-05-25T01:41:31.659648Z

Period
93.90 min
Inclination
97.2841°
Eccentricity
0.0001618
Mean motion
15.33467395 rev/d
Perigee alt
464.4 km
Apogee alt
466.6 km
Semi-major
6,843.6 km
B*
-2.3925e-4
RAAN
166.7406°
Arg perigee
53.9582°
Mean anomaly
306.1810°
Rev number
1,135

§ Raw data

STARLINK-369811 68148U 26049G   26145.07050532 -.00007797  00000+0 -23925-3 0  99932 68148  97.2841 166.7406 0001618  53.9582 306.1810 15.33467395 11353

JSON: /api/v1/satellites/68148 · /tle

For live sub-satellite position, see the globe view (requires WebGL).

§ Visibility from observer

Set your observer location to see the next 7 days of passes ≥ 10°. The values pass through the URL so the page stays shareable.

No JS? Fill the form by hand. The geolocation button needs JavaScript.